TimeCDT,TemperatureF,Dew PointF,Humidity,Sea Level PressureIn,VisibilityMPH,Wind Direction,Wind SpeedMPH,Gust SpeedMPH,PrecipitationIn,Events,Conditions,WindDirDegrees,DateUTC
12:15 AM,83.5,72.9,70,29.86,10.0,SSE,17.3,23.0,N/A,,Overcast,150,2013-06-21 05:15:00
12:35 AM,82.9,73.0,72,29.86,10.0,SSE,13.8,25.3,N/A,,Mostly Cloudy,160,2013-06-21 05:35:00
12:55 AM,82.6,73.4,74,29.86,10.0,SSE,19.6,25.3,N/A,,Mostly Cloudy,160,2013-06-21 05:55:00
1:15 AM,82.6,73.4,74,29.85,10.0,SSE,18.4,26.5,N/A,,Scattered Clouds,160,2013-06-21 06:15:00
1:35 AM,81.9,73.4,75,29.84,10.0,SSE,16.1,25.3,N/A,,Scattered Clouds,160,2013-06-21 06:35:00
1:55 AM,81.9,73.0,74,29.84,10.0,SSE,18.4,23.0,N/A,,Clear,160,2013-06-21 06:55:00
2:15 AM,81.7,72.9,74,29.83,10.0,SSE,16.1,24.2,N/A,,Clear,160,2013-06-21 07:15:00
2:35 AM,81.5,72.5,74,29.82,10.0,South,18.4,26.5,N/A,,Clear,170,2013-06-21 07:35:00
2:55 AM,81.5,72.5,74,29.82,10.0,SSE,18.4,25.3,N/A,,Clear,160,2013-06-21 07:55:00
3:15 AM,81.7,72.5,74,29.81,10.0,South,21.9,28.8,N/A,,Clear,180,2013-06-21 08:15:00
3:35 AM,81.1,72.1,74,29.80,10.0,South,20.7,29.9,N/A,,Clear,180,2013-06-21 08:35:00
3:55 AM,80.8,72.0,74,29.80,10.0,SSE,17.3,28.8,N/A,,Clear,160,2013-06-21 08:55:00
4:15 AM,80.6,71.8,74,29.81,10.0,South,16.1,26.5,N/A,,Clear,170,2013-06-21 09:15:00
4:35 AM,79.9,71.6,76,29.81,10.0,SSE,16.1,-,N/A,,Clear,160,2013-06-21 09:35:00
4:55 AM,79.7,71.6,76,29.82,10.0,SSE,16.1,24.2,N/A,,Clear,160,2013-06-21 09:55:00
5:15 AM,79.3,71.6,77,29.84,10.0,SSE,10.4,19.6,N/A,,Clear,160,2013-06-21 10:15:00
5:35 AM,79.2,71.2,77,29.84,10.0,SSE,9.2,-,N/A,,Clear,160,2013-06-21 10:35:00
5:55 AM,78.4,71.1,78,29.84,10.0,SSE,11.5,-,N/A,,Clear,150,2013-06-21 10:55:00
6:15 AM,78.3,70.9,78,29.84,10.0,SE,9.2,-,N/A,,Clear,140,2013-06-21 11:15:00
6:35 AM,78.3,70.9,78,29.84,10.0,SSE,11.5,-,N/A,,Clear,160,2013-06-21 11:35:00
6:55 AM,78.3,70.9,78,29.84,10.0,SSE,10.4,17.3,N/A,,Clear,160,2013-06-21 11:55:00
7:15 AM,78.8,70.9,77,29.84,10.0,South,11.5,16.1,N/A,,Clear,170,2013-06-21 12:15:00
7:35 AM,78.8,70.9,77,29.84,10.0,SSE,10.4,16.1,N/A,,Clear,150,2013-06-21 12:35:00
7:55 AM,79.2,70.9,76,29.84,10.0,South,11.5,-,N/A,,Clear,170,2013-06-21 12:55:00
8:15 AM,79.9,71.1,74,29.85,10.0,South,12.7,16.1,N/A,,Clear,180,2013-06-21 13:15:00
8:35 AM,81.0,71.1,72,29.85,10.0,South,9.2,-,N/A,,Clear,180,2013-06-21 13:35:00
8:55 AM,81.7,71.1,70,29.85,10.0,SSE,10.4,16.1,N/A,,Clear,150,2013-06-21 13:55:00
9:15 AM,81.1,70.2,69,29.85,10.0,South,10.4,-,N/A,,Clear,170,2013-06-21 14:15:00
9:35 AM,82.2,70.7,68,29.86,10.0,SSE,9.2,-,N/A,,Clear,160,2013-06-21 14:35:00
9:55 AM,82.0,70.3,68,29.86,10.0,SSE,10.4,-,N/A,,Clear,160,2013-06-21 14:55:00
10:15 AM,81.7,70.5,69,29.85,10.0,South,10.4,18.4,N/A,,Clear,170,2013-06-21 15:15:00
10:35 AM,81.1,70.5,70,29.85,10.0,SSE,15.0,-,N/A,,Clear,160,2013-06-21 15:35:00
10:55 AM,81.0,70.7,71,29.86,10.0,SSE,10.4,17.3,N/A,Thunderstorm,Thunderstorm,160,2013-06-21 15:55:00
11:15 AM,84.7,72.0,65,29.86,10.0,SSE,16.1,19.6,N/A,Thunderstorm,Clear,160,2013-06-21 16:15:00
11:35 AM,84.4,71.2,65,29.85,10.0,SSE,16.1,-,N/A,,Clear,150,2013-06-21 16:35:00
11:55 AM,83.5,72.1,69,29.84,10.0,SE,17.3,-,N/A,,Clear,140,2013-06-21 16:55:00
12:15 PM,85.6,70.7,61,29.84,10.0,SSE,18.4,26.5,N/A,,Clear,150,2013-06-21 17:15:00
12:35 PM,85.5,71.8,63,29.84,10.0,SE,17.3,-,N/A,,Clear,140,2013-06-21 17:35:00
12:55 PM,86.7,72.0,61,29.84,10.0,SSE,17.3,26.5,N/A,,Clear,150,2013-06-21 17:55:00
1:15 PM,88.2,72.0,59,29.84,10.0,SE,19.6,23.0,N/A,,Clear,130,2013-06-21 18:15:00
1:35 PM,90.0,73.2,58,29.83,10.0,SE,16.1,25.3,N/A,,Clear,130,2013-06-21 18:35:00
1:55 PM,91.2,69.4,49,29.83,10.0,SSE,18.4,25.3,N/A,,Clear,150,2013-06-21 18:55:00
2:15 PM,92.1,70.0,48,29.82,10.0,SE,18.4,25.3,N/A,,Clear,140,2013-06-21 19:15:00
2:35 PM,91.6,71.8,52,29.82,10.0,ESE,19.6,-,N/A,,Clear,120,2013-06-21 19:35:00
2:55 PM,91.6,71.2,51,29.83,10.0,SE,17.3,26.5,N/A,,Clear,140,2013-06-21 19:55:00
3:15 PM,91.9,72.3,53,29.82,10.0,SE,17.3,25.3,N/A,,Clear,130,2013-06-21 20:15:00
3:35 PM,92.3,70.5,49,29.81,10.0,SSE,18.4,26.5,N/A,,Clear,150,2013-06-21 20:35:00
3:55 PM,92.5,69.8,47,29.81,10.0,SE,17.3,26.5,N/A,,Clear,140,2013-06-21 20:55:00
4:15 PM,93.2,69.6,46,29.79,10.0,SSE,20.7,25.3,N/A,,Clear,160,2013-06-21 21:15:00
4:35 PM,93.4,72.0,50,29.78,10.0,SE,12.7,21.9,N/A,,Clear,140,2013-06-21 21:35:00
4:55 PM,94.3,70.9,46,29.78,10.0,SE,18.4,25.3,N/A,,Clear,130,2013-06-21 21:55:00
5:15 PM,95.2,69.1,42,29.77,10.0,SSE,17.3,24.2,N/A,,Clear,150,2013-06-21 22:15:00
5:35 PM,95.4,68.9,42,29.76,10.0,SSE,20.7,27.6,N/A,,Clear,160,2013-06-21 22:35:00
5:55 PM,95.2,68.9,42,29.76,10.0,SSE,18.4,28.8,N/A,,Clear,160,2013-06-21 22:55:00
6:15 PM,95.0,68.5,42,29.77,10.0,SSE,23.0,28.8,N/A,,Clear,160,2013-06-21 23:15:00
6:35 PM,94.3,69.4,44,29.77,10.0,SSE,21.9,29.9,N/A,,Clear,160,2013-06-21 23:35:00
6:55 PM,93.4,70.7,47,29.78,10.0,SSE,15.0,23.0,N/A,,Clear,160,2013-06-21 23:55:00
7:15 PM,92.8,71.2,49,29.79,10.0,SSE,18.4,24.2,N/A,,Clear,150,2013-06-22 00:15:00
7:35 PM,91.9,70.7,50,29.79,10.0,SSE,16.1,-,N/A,,Clear,150,2013-06-22 00:35:00
7:55 PM,91.0,70.9,51,29.79,10.0,SSE,15.0,25.3,N/A,,Clear,160,2013-06-22 00:55:00
8:15 PM,90.3,71.4,54,29.79,10.0,SSE,13.8,24.2,N/A,,Clear,160,2013-06-22 01:15:00
8:35 PM,89.6,72.0,56,29.80,10.0,SSE,13.8,-,N/A,,Clear,150,2013-06-22 01:35:00
8:55 PM,88.3,72.5,59,29.81,10.0,SSE,11.5,-,N/A,,Clear,150,2013-06-22 01:55:00
9:15 PM,87.6,72.5,61,29.81,10.0,SSE,12.7,17.3,N/A,,Clear,150,2013-06-22 02:15:00
9:35 PM,86.9,72.3,62,29.82,10.0,SSE,11.5,-,N/A,,Clear,150,2013-06-22 02:35:00
9:55 PM,86.7,72.1,62,29.83,10.0,SSE,10.4,18.4,N/A,,Clear,150,2013-06-22 02:55:00
10:15 PM,86.0,71.8,62,29.83,10.0,SSE,12.7,-,N/A,,Clear,150,2013-06-22 03:15:00
10:35 PM,85.5,71.6,63,29.83,10.0,SSE,13.8,21.9,N/A,,Clear,150,2013-06-22 03:35:00
10:55 PM,84.7,71.6,65,29.82,10.0,SSE,16.1,20.7,N/A,,Clear,150,2013-06-22 03:55:00
11:15 PM,84.6,71.2,64,29.81,10.0,SSE,17.3,21.9,N/A,,Clear,160,2013-06-22 04:15:00
11:35 PM,84.4,71.1,64,29.82,10.0,SSE,17.3,25.3,N/A,,Clear,160,2013-06-22 04:35:00
11:55 PM,83.8,71.2,66,29.83,10.0,South,15.0,20.7,N/A,,Clear,170,2013-06-22 04:55:00